NOAA 16 DEB, 42429

Orbit data source: Space-Track

NOAA 16 DEB, 42429 is space debris in SSO originally from a launch on Thu, 21 Sep 2000 UTC launched from the Air Force Western Test Range (AFWTR). Debris objects in space refer to the collection of defunct objects orbiting the Earth. Examples of debris include non-operational satellites, rocket bodies, and fragments generated from explosions, collisions, or faulty payload assembly.

Loading next visibility...
Identifier
42429, 2000-055TZ
Orbit
SSO
Country
Flag of USUS
Related business
Manufacturer
Unknown
Mission
Spacecraft
Bus & Motor
Unknown
Mass
Unknown
Launch date (UTC)
2000-09-21 (25 years ago)
Launch vehicle
Unknown
Launch site
Air Force Western Test Range (AFWTR)
Object type
Payload
Rocket body
Debris
Shape & HBR
Unknown shape, 0.1 m
Radar Cross Section
Small (<0.1 m²)

Expand to show TLE details & history
Last TLE update: 1 day ago

TLE from 1 day ago
0 NOAA 16 DEB
1 42429U 00055TZ  25292.43610037  .00019997  00000-0  74171-2 0  9992
2 42429  98.8380   8.5747 0029123 160.6850 199.5443 14.31976486471740
Epoch: 2025-10-19T10:27Z
TLE epoch observation values (Epoch: 2025-10-19T10:27:59.071Z)
Latitude
-0.00009°
Longitude
-176.57421°
Altitude
807.729 km
Speed
7.439 km/s
True Right ascension
00h 34m 17s
True Declination
0° 00' 00"
Sunlit
Object was in full shadow at epoch
Visualization orbit readout
Latitude
Unknown
Longitude
Unknown
Altitude
Unknown
Speed
Unknown
Apparent Right ascension
Unknown
Apparent Declination
Unknown
Sunlit
N/A
Visualization observer readout
Local Sidereal Time
05:32:40
Azimuth
Unknown
Elevation
Unknown
Doppler factor
Unknown
Orbital elements
Apogee altitude
803.134 km
Perigee altitude
761.427 km
Semi-major axis
7,160.418 km
Eccentricity
0.00291
Inclination
98.838°
RAAN
8.5747°
Arg. of periapsis
160.685°
True anomaly
199.43304°
Mean anomaly
199.5443°
Eccentric anomaly
199.48863°
Mean motion
3.58208 °/min
Orbital period
100.5 mins
BSTAR
0.0074171
Loading maneuver chart data...
Computing Atmospheric mass density...
Loading historical data...
Loading historical data...
Loading historical data...
Loading historical data...
Loading historical data...
Loading historical data...
Loading historical data...

Documentation

Showing up to 5 results
|